Regional Weather Roundup
Issued by NWS Sioux Falls, SD

Home | Current Version | Previous Version | Text Only | Print | Product List | Glossary Off
Versions: 1 2 3 4 5 6 7 8 9 10 11 12 13 14 15 16 17 18 19 20 21 22 23 24 25 26 27 28 29 30 31 32 33 34 35 36 37 38 39 40 41 42 43 44 45 46 47 48 49 50

000
ASUS43 KFSD 050610
RWRFSD

WEATHER ROUNDUP FOR SE SOUTH DAKOTA/SW MINNESOTA/NW IOWA
NATIONAL WEATHER SERVICE SIOUX FALLS SD
100 AM CDT WED AUG 05 2015

NOTE: "FAIR" INDICATES FEW OR NO CLOUDS BELOW 12,000 FEET WITH NO
SIGNIFICANT WEATHER AND OR OBSTRUCTIONS TO VISIBILITY.


SDZ038>040-050-052>070-050700-
SOUTHEAST SOUTH DAKOTA

CITY           SKY/WX    TMP DP  RH WIND       PRES   REMARKS
BROOKINGS      CLOUDY    64  55  72 E7        30.06R
CHAMBERLAIN    CLOUDY    66  63  91 SE7       30.00S
6HR MIN TEMP:  65; 6HR MAX TEMP:  78;

HURON          MOCLDY     1  32 100 SE7       30.01R WCI -12
6HR MIN TEMP:   1; 6HR MAX TEMP:  79;

MADISON        FAIR      59  59 100 SE5       30.05R
MITCHELL       MOCLDY    66  63  90 E7        30.01S
6HR MIN TEMP:  66; 6HR MAX TEMP:  79;

SIOUX FALLS    MOCLDY    66  59  78 E7        30.03R
6HR MIN TEMP:  66; 6HR MAX TEMP:  76;

WINNER         FAIR      68  64  87 SE6       30.00S
YANKTON        MOCLDY    66  64  94 E6        29.99S
$$

MNZ071-072-080-081-089-090-097-098-050700-
SOUTHWEST MINNESOTA

CITY           SKY/WX    TMP DP  RH WIND       PRES   REMARKS
FAIRMONT       MOCLDY    57  52  82 CALM      30.05R
JACKSON        MOCLDY    61  55  82 E3        30.07R
LUVERNE        CLOUDY    63  59  88 CALM      30.05R
MARSHALL       MOCLDY    57  52  82 CALM      30.05S
6HR MIN TEMP:  57; 6HR MAX TEMP:  79;

MONTEVIDEO     PTCLDY    57  52  82 CALM      30.06R
PIPESTONE      CLOUDY    61  55  82 CALM      30.05S
REDWOOD FALLS  MOCLDY    62  55  77 S3        30.04R
TRACY          MOCLDY    66  55  68 S5        30.05R
WINDOM         MOCLDY    57  54  88 CALM      30.05S
WORTHINGTON    MOCLDY    61  54  77 CALM      30.06R
$$

IAZ001>003-012>014-020>022-031-032-NEZ013-014-SDZ071-050700-
NORTHWEST IOWA

CITY           SKY/WX    TMP DP  RH WIND       PRES   REMARKS
CHEROKEE       MOCLDY    64  63  96 E5        30.03S
DENISON        CLOUDY    68  64  88 NE6       30.00S
ESTHERVILLE    MOCLDY    56  54  93 SE3       30.05R
LE MARS        CLOUDY    68  64  88 E5        30.03S
ORANGE CITY    MOCLDY    64  61  88 E6        30.04R
SHELDON        MOCLDY    61  59  94 E5        30.03R
SIOUX CITY     CLOUDY    67  62  84 SE10      30.00S
6HR MIN TEMP:  67; 6HR MAX TEMP:  76; 6HR PCP:  0.03;

SPENCER        MOCLDY    61  56  83 E3        30.05R
6HR MIN TEMP:  61; 6HR MAX TEMP:  76;

STORM LAKE     MOCLDY    64  61  88 E5        30.05R
$$

ABBREVIATIONS USED IN REMARKS
   TC - TEMPERATURE IN CELSIUS
  WCI - WIND CHILL INDEX
   HX - HEAT INDEX
  VSB - VISIBILITY




USA.gov is the U.S. government's official web portal to all federal, state and local government web resources and services.